Regional Weather Roundup
Issued by NWS

Home | Current Version | Previous Version | Text Only | Print | Product List | Glossary On
Versions: 1 2 3 4 5 6 7 8 9 10 11 12 13 14 15 16 17 18 19 20 21 22 23 24 25 26 27 28 29 30 31 32 33 34 35 36 37 38 39 40 41 42 43 44 45 46 47 48 49 50
000
ASUS44 KBMX 271410
RWRAL

ALABAMA REGIONAL WEATHER ROUNDUP
NATIONAL WEATHER SERVICE BIRMINGHAM AL
800 AM CST THU NOV 27 2014

NOTE: "FAIR" INDICATES FEW OR NO CLOUDS BELOW 12,000 FEET
WITH NO SIGNIFICANT WEATHER AND/OR OBSTRUCTIONS TO VISIBILITY.

THE REMARK "TC" DENOTES TEMPERATURE IN DEGREES CELSIUS.

ALZ001>011-014-016>018-020-271500-
NORTH ALABAMA

CITY           SKY/WX    TMP DP  RH WIND       PRES   REMARKS
MUSCLE SHOALS  PTSUNNY   40  31  70 NW12G18   30.37R WCI  33
HUNTSVILLE     LGTSLEET  39  34  81 N10       30.34R WCI  32
DECATUR        PTSUNNY   39  32  76 N14G22    30.34R WCI  31
HALEYVILLE     PTSUNNY   36  32  85 N10G17    30.36R WCI  28
GADSDEN        CLOUDY    41  30  65 W9        30.31R
$$

ALZ012-013-022-023-030>036-040>044-271500-
WEST CENTRAL ALABAMA

CITY           SKY/WX    TMP DP  RH WIND       PRES   REMARKS
TUSCALOOSA     SUNNY     41  30  65 W6        30.40R
$$

ALZ015-024>027-033>036-040>044-271500-
CENTRAL ALABAMA

CITY           SKY/WX    TMP DP  RH WIND       PRES   REMARKS
BIRMINGHAM     MOSUNNY   39  32  76 NW7       30.34R WCI  34
MONTGOMERY     SUNNY     45  32  60 W12       30.34R
SHELBY CO ARPT SUNNY     41  32  70 NW8       30.34R
MAXWELL AFB    SUNNY     44  33  67 NW5       30.34R
GREENVILLE     FAIR      46  31  55 NW6       30.33R
$$

ALZ019-021-028-029-037-038-045>048-271500-
EAST CENTRAL ALABAMA

CITY           SKY/WX    TMP DP  RH WIND       PRES   REMARKS
ANNISTON       SUNNY     43  31  62 NW12      30.30R
ALEXANDER CITY SUNNY     42  31  67 W5        30.31R
AUBURN         SUNNY     41  28  60 NW10      30.31R
$$

ALZ051>064-271500-
SOUTHWEST ALABAMA

CITY           SKY/WX    TMP DP  RH WIND       PRES   REMARKS
MOBILE         SUNNY     47  35  63 NW10      30.39R
BROOKLEY FIELD SUNNY     51  36  56 NW12      30.39R
EVERGREEN      SUNNY     45  39  79 VRB3      30.37R
$$

ALZ049-050-065>069-271500-
SOUTHEAST ALABAMA

CITY           SKY/WX    TMP DP  RH WIND       PRES   REMARKS
DOTHAN         SUNNY     47  35  63 W7        30.35R
OZARK          SUNNY     46  37  72 W3        30.33R
TROY           SUNNY     44  35  70 VRB5      30.33R
EUFAULA        FAIR      48  33  56 VRB3      30.30R
$$


USA.gov is the U.S. government's official web portal to all federal, state and local government web resources and services.